Flag for Finland Weather past 2 weeks in Ivalo, Finland

Now
32 °F

Overcast.


Feels Like: 22 °F
Forecast: 28 / 33 °F
Wind: 15 mph from Southwest

Location: Ivalo

Current Time: Feb 28, 2015 at 6:56:31 PM

Latest Report: Feb 28, 2015 at 5:50 PM


Visibility: N/A

Pressure: 29.56 "Hg

Humidity: 80%

Dew point: 27 °F

Location of IvaloLocation

Historic Weather in Ivalo — Graph

°F

Ivalo temperature yesterday

Maximum temperature yesterday: 34 °F (at 12:20 AM)
Minimum temperature yesterday: 30 °F (at 10:50 PM)
Average temperature yesterday: 33 °F

Past Weeks' High & Low Weather Summary

 TemperatureHumidityPressure
High34 °F (Feb 24, 5:50 PM)100% (Feb 19, 8:20 PM)30.45 "Hg (Feb 19, 8:20 PM)
Low-11 °F (Feb 14, 7:20 AM)58% (Feb 16, 3:20 PM)28.91 "Hg (Feb 20, 2:20 PM)
Average23 °F82%29.55 "Hg
* Reported Feb 13 5:20 PM — Feb 28 5:35 PM, Ivalo, Weather by CustomWeather, © 2015

Note: Actual official high and low records may vary slightly from our data, if they occured in-between our weather recording intervals... More about our weather records

Advertising

Ivalo weather history for previous 24 hours

 ConditionsComfort  
Time TempWeatherWind HumidityBarometerVisibility
5:35 PM
Sat, Feb 28
32 °FOvercast.14 mph80%29.56 "HgN/A
4:50 PM34 °FOvercast.12 mph75%29.56 "HgN/A
4:20 PM34 °FOvercast.16 mph75%29.56 "HgN/A
3:50 PM34 °FOvercast.13 mph75%29.56 "HgN/A
3:20 PM34 °FOvercast.12 mph75%29.56 "HgN/A
2:50 PM34 °FOvercast.14 mph75%29.56 "HgN/A
2:20 PM34 °FOvercast.16 mph75%29.56 "HgN/A
1:50 PM34 °FOvercast.12 mph75%29.56 "HgN/A
1:20 PM34 °FOvercast.17 mph75%29.56 "HgN/A
12:50 PM34 °FOvercast.13 mph75%29.56 "HgN/A
12:20 PM34 °FOvercast.14 mph75%29.56 "HgN/A
11:50 AM34 °FOvercast.14 mph75%29.56 "HgN/A
11:20 AM32 °FOvercast.17 mph80%29.56 "HgN/A
10:50 AM32 °FOvercast.17 mph80%29.56 "HgN/A
10:20 AM32 °FOvercast.17 mph80%29.56 "HgN/A
9:50 AM32 °FOvercast.21 mph80%29.56 "HgN/A
9:20 AM34 °FOvercast.14 mph75%29.56 "HgN/A
8:50 AM34 °FOvercast.18 mph75%29.56 "HgN/A
8:20 AM34 °FOvercast.15 mph75%29.56 "HgN/A
7:50 AM34 °FPartly sunny.20 mph75%29.53 "HgN/A
7:20 AM34 °FOvercast.16 mph75%29.53 "HgN/A
6:50 AM32 °FPassing clouds.17 mph80%29.53 "HgN/A
6:20 AM32 °FMostly cloudy.17 mph80%29.53 "HgN/A
5:50 AM34 °FOvercast.21 mph81%29.53 "HgN/A
5:20 AM32 °FOvercast.18 mph87%29.53 "HgN/A
4:50 AM32 °FOvercast.15 mph87%29.56 "HgN/A
4:20 AM32 °FOvercast.16 mph80%29.56 "HgN/A
3:50 AM32 °FOvercast.16 mph80%29.56 "HgN/A
3:20 AM32 °FOvercast.16 mph80%29.56 "HgN/A
2:50 AM32 °FSnow flurries. Overcast.17 mph80%29.56 "HgN/A
2:20 AM32 °FSnow flurries. Overcast.17 mph80%29.56 "HgN/A
1:50 AM32 °FSnow flurries. Overcast.17 mph75%29.59 "HgN/A
1:20 AM30 °FLight snow. Overcast.15 mph80%29.59 "HgN/A
12:50 AM30 °FLight snow. Overcast.17 mph86%29.59 "Hg3 mi
12:20 AM30 °FLight snow. Overcast.15 mph86%29.62 "Hg4 mi
11:50 PM
Fri, Feb 27
30 °FLight snow. Overcast.15 mph86%29.62 "Hg4 mi
11:20 PM30 °FLight snow. Overcast.14 mph86%29.62 "Hg3 mi
10:50 PM30 °FLight snow. Overcast.13 mph86%29.65 "Hg3 mi
10:20 PM32 °FLight snow. Overcast.13 mph80%29.65 "HgN/A
9:50 PM32 °FSnow flurries. Overcast.15 mph80%29.65 "HgN/A
9:20 PM32 °FSnow flurries. Overcast.15 mph80%29.68 "HgN/A
8:50 PM32 °FLight snow. Overcast.16 mph80%29.68 "HgN/A
8:20 PM32 °FLight snow. Overcast.17 mph75%29.68 "HgN/A
7:50 PM32 °FOvercast.17 mph75%29.71 "HgN/A
7:20 PM32 °FOvercast.18 mph75%29.71 "HgN/A
6:50 PM32 °FOvercast.22 mph75%29.71 "HgN/A
6:20 PM32 °FOvercast.20 mph80%29.71 "HgN/A
Weather by CustomWeather, © 2015

See weather overviewHow to use our weather pages